#timestamp,LO_Frequency,Hit,StdDev 
1505556015.4,286046996.3,N
1505556035.2,286046997.7,N
1505556055.1,286046998.0,N
1505556056.0,286046998.0,N
1505556075.8,286046996.9,N
1505556095.6,286047001.1,N
1505556115.5,286046999.6,N
1505556135.3,286046998.5,N
1505556155.1,286046997.1,N
1505556175.9,286046997.9,N
1505556195.7,286046998.8,N
1505556215.5,286047002.3,N
1505556235.4,286047000.9,N
1505556255.2,286047001.7,N
1505556275.0,286046998.7,N
1505556275.9,286046998.7,N
1505556295.8,286047000.5,N
1505556315.6,286046998.5,N
1505556335.4,286047001.2,N
1505556355.3,286047000.3,N
1505556375.1,286047000.9,N
1505556376.0,286047000.9,N
1505556395.8,286046997.1,N
1505556415.7,286046998.4,N
1505556435.5,286047000.8,N
1505556455.3,286046998.8,N
1505556475.1,286046999.2,N
1505556495.9,286046999.0,N
1505556515.7,286046998.7,N
1505556535.5,286046999.5,N
1505556555.4,286046996.6,N
1505556575.2,286046999.6,N
1505556595.0,286046997.1,N
1505556595.9,286046997.1,N
1505556615.8,286046993.9,Y
1505556635.6,286046991.9,P
1505556655.4,286046992.8,N
1505556675.3,286046992.8,N
1505556695.1,286046992.6,N
1505556696.0,286046992.6,N
1505556715.8,286046989.3,Y
1505556735.7,286046997.0,P
1505556755.5,286046999.1,N
1505556775.3,286046999.2,N
1505556795.2,286046998.2,N
1505556815.9,286047001.1,N
1505556835.7,286046998.3,N
1505556855.6,286046998.1,N
1505556875.4,286047002.3,N
1505556895.2,286046998.5,N
1505556915.0,286047000.1,N
1505556916.0,286047000.1,N
1505556935.8,286047001.3,N
1505556955.6,286047001.8,N
1505556975.4,286047003.5,N
1505556995.3,286047002.4,N
1505557015.1,286047000.4,N
1505557035.8,286046997.0,N
1505557055.7,286046996.6,N
1505557075.5,286046999.4,N
1505557095.3,286047002.2,N
1505557115.2,286046999.7,N
1505557135.9,286046998.1,N
1505557155.7,286046998.7,N
1505557175.6,286046999.5,N
1505557195.4,286046998.2,N
1505557215.2,286046999.2,N
1505557235.1,286046999.0,N
1505557236.0,286046999.0,N
1505557255.8,286047001.2,N
1505557275.6,286047002.0,N
1505557295.4,286047001.4,N
1505557315.3,286047002.7,N
1505557335.1,286046999.7,N
1505557355.8,286047001.4,N
1505557375.7,286047001.7,N
1505557395.5,286047001.8,N
1505557415.3,286047001.9,N
1505557435.2,286047004.7,N
1505557455.9,286047006.6,Y
1505557475.7,286047005.0,P
1505557495.6,286047004.5,N
1505557515.4,286047006.4,P
1505557535.2,286047006.7,Y
1505557555.1,286046999.8,P
1505557556.0,286046999.8,N
1505557575.8,286046998.3,N
1505557595.6,286046998.2,N
1505557615.5,286047002.0,N
1505557635.3,286046999.1,N
1505557655.1,286047001.0,N
1505557675.9,286047001.0,N
1505557695.7,286047000.3,N
1505557715.5,286047001.5,N
1505557735.3,286047002.0,N
1505557755.2,286047001.9,N
1505557775.0,286047004.3,N
1505557775.9,286047004.3,N
1505557795.7,286046999.4,N
1505557815.6,286046997.2,N
1505557835.4,286046995.3,N
1505557855.2,286046997.0,N
1505557875.1,286046995.9,N
1505557876.0,286046995.9,N
1505557895.8,286046996.9,N
1505557915.6,286046996.9,N
1505557935.5,286046996.5,N
1505557955.3,286046998.6,N
1505557975.1,286046998.9,N
1505557995.9,286046998.9,N
1505558015.7,286047000.3,N
1505558035.5,286047002.3,N
1505558055.3,286047002.8,N
1505558075.2,286047001.2,N
1505558095.0,286047000.3,N
1505558095.9,286047000.3,N
1505558115.7,286046998.4,N
1505558135.6,286047002.0,N
1505558155.4,286047002.2,N
1505558175.2,286047000.4,N
1505558195.1,286047000.8,N
1505558196.0,286047000.8,N
1505558215.8,286046997.3,N
1505558235.6,286046997.7,N
1505558255.5,286046995.6,N
1505558275.3,286046997.1,N
1505558295.1,286046998.0,N
1505558315.9,286046995.2,N
1505558335.7,286046997.3,N
1505558355.5,286046995.0,N
1505558375.4,286046995.4,N
1505558395.2,286046996.4,N
1505558415.0,286046995.7,N
1505558415.9,286046995.7,N
1505558435.8,286046993.6,N
1505558455.6,286046995.4,N
1505558475.4,286046998.3,N
1505558495.2,286047000.4,N
1505558515.1,286046997.8,N
1505558516.0,286046997.8,N
1505558535.8,286046995.2,N
1505558555.6,286047000.9,N
1505558575.5,286046998.3,N
1505558595.3,286046999.5,N
1505558615.1,286046998.9,N
1505558635.9,286046997.3,N
1505558655.7,286046997.0,N
1505558675.5,286046997.5,N
1505558695.4,286046995.4,N
1505558715.2,286046994.9,N
1505558735.0,286046994.5,N
1505558735.9,286046994.5,N
1505558755.8,286046994.3,Y
1505558775.6,286046997.6,P
1505558795.4,286046997.5,P
1505558815.3,286046999.6,N
1505558835.1,286046998.6,N
1505558836.0,286046998.6,N
1505558855.8,286046998.7,N
1505558875.7,286046998.8,N
1505558895.5,286046997.9,N
1505558915.3,286046997.3,Y
1505558935.2,286047002.4,P
1505558955.9,286046999.7,N
1505558975.7,286047000.3,N
1505558995.6,286047000.4,N
1505559015.4,286046998.9,N
1505559035.2,286046998.1,N
1505559055.0,286046998.1,N
1505559055.9,286046998.1,N
1505559075.8,286047002.2,N
1505559095.6,286047005.9,Y
1505559115.4,286047002.9,P
1505559135.3,286047002.8,N
1505559155.1,286047000.5,N
1505559175.8,286047000.0,N
1505559195.7,286046998.6,N
1505559215.5,286046995.5,N
1505559235.3,286046996.7,N
1505559255.2,286046999.4,N
1505559275.9,286047002.3,N
1505559295.7,286046999.5,N
1505559315.6,286047001.1,N
1505559335.4,286047000.7,N
1505559355.2,286046999.9,N
1505559375.0,286047000.2,N
1505559376.0,286047000.2,N
1505559395.8,286047001.4,N
1505559415.6,286047003.3,N
1505559435.4,286047003.0,N
1505559455.3,286047001.4,N
1505559475.1,286047002.5,N
1505559495.8,286047001.8,N
1505559515.7,286046998.4,N
1505559535.5,286047000.9,N
1505559555.3,286047001.9,N
1505559575.2,286047000.4,N
1505559595.9,286047001.3,N
